Date, Salinity (PSU)
2022-11-23 00:35:00,36.25 
2022-11-23 01:35:00,36.22 
2022-11-23 02:35:00,36.21 
2022-11-23 03:05:00,36.21 
2022-11-23 03:35:00,36.21 
2022-11-23 04:35:00,36.21 
2022-11-23 05:05:00,36.23 
2022-11-23 05:35:00,36.23 
2022-11-23 06:35:00,36.25 
2022-11-23 07:05:00,36.27 
2022-11-23 07:35:00,36.21 
2022-11-23 08:35:00,36.24 
2022-11-23 09:35:00,36.28 
2022-11-23 10:05:00,36.27 
2022-11-23 10:35:00,36.25 
2022-11-23 11:35:00,36.24 
2022-11-23 12:35:00,36.20 
2022-11-23 13:35:00,36.24 
2022-11-23 14:35:00,36.21 
2022-11-23 15:35:00,36.20 
2022-11-23 16:35:00,36.18 
2022-11-23 17:35:00,36.23 
2022-11-23 18:35:00,36.20 
2022-11-23 19:05:00,36.21 
2022-11-23 19:35:00,36.25 
2022-11-23 20:35:00,36.26 
2022-11-23 21:35:00,36.26 
2022-11-23 22:35:00,36.23 
2022-11-23 23:35:00,36.19 
2022-11-24 00:05:00,36.21 
2022-11-24 00:35:00,36.22 
2022-11-24 01:05:00,36.23 
2022-11-24 01:35:00,36.23 
2022-11-24 02:35:00,36.23 
2022-11-24 03:35:00,36.24 
2022-11-24 04:35:00,36.23 
2022-11-24 05:35:00,36.23 
2022-11-24 06:35:00,36.24 
2022-11-24 07:35:00,36.27 
2022-11-24 08:05:00,36.27 
2022-11-24 08:35:00,36.20 
2022-11-24 09:35:00,36.21 
2022-11-24 10:05:00,36.21 
2022-11-24 10:35:00,36.21 
2022-11-24 11:35:00,36.21 
2022-11-24 12:35:00,36.20 
2022-11-24 13:35:00,36.20 
2022-11-24 14:35:00,36.19 
2022-11-24 15:35:00,36.24 
2022-11-24 16:05:00,36.23 
2022-11-24 16:35:00,36.22 
2022-11-24 17:05:00,36.20 
2022-11-24 17:35:00,36.25 
2022-11-24 18:05:00,36.20 
2022-11-24 18:35:00,36.22 
2022-11-24 19:35:00,36.23 
2022-11-24 20:35:00,36.25 
2022-11-24 21:35:00,36.26 
2022-11-24 22:35:00,36.22 
2022-11-24 23:35:00,36.19 
2022-11-25 00:35:00,36.21 
2022-11-25 01:35:00,36.20 
2022-11-25 02:05:00,36.21 
2022-11-25 02:35:00,36.22 
2022-11-25 03:05:00,36.23 
2022-11-25 03:35:00,36.24 
2022-11-25 04:05:00,36.24 
2022-11-25 04:35:00,36.26 
2022-11-25 05:35:00,36.25 
2022-11-25 06:35:00,36.27 
2022-11-25 07:05:00,36.21 
2022-11-25 07:35:00,36.21 
2022-11-25 08:35:00,36.17 
2022-11-25 09:35:00,36.20 
2022-11-25 10:35:00,36.27 
2022-11-25 11:35:00,36.28 
2022-11-25 12:05:00,36.22 
2022-11-25 12:35:00,36.22 
2022-11-25 13:05:00,36.21 
2022-11-25 13:35:00,36.27 
2022-11-25 14:35:00,36.23 
2022-11-25 15:35:00,36.15 
2022-11-25 16:35:00,36.17 
2022-11-25 17:35:00,36.19 
2022-11-25 18:35:00,36.22 
2022-11-25 19:05:00,36.25 
2022-11-25 19:35:00,36.28 
2022-11-25 20:35:00,36.24 
2022-11-25 21:35:00,36.22 
2022-11-25 22:35:00,36.23 
2022-11-25 23:05:00,36.19 
2022-11-25 23:35:00,36.19 
2022-11-26 00:05:00,36.16 
2022-11-26 00:35:00,36.15 
2022-11-26 01:35:00,36.08 
2022-11-26 02:35:00,36.10 
2022-11-26 03:35:00,36.15 
2022-11-26 04:05:00,36.09 
2022-11-26 04:35:00,36.09 
2022-11-26 05:35:00,36.09 
2022-11-26 06:35:00,36.09 
2022-11-26 07:05:00,36.11 
2022-11-26 07:35:00,36.12 
2022-11-26 08:05:00,36.13 
2022-11-26 08:35:00,36.13 
2022-11-26 09:35:00,36.06 
2022-11-26 10:35:00,36.05 
2022-11-26 11:35:00,36.11 
2022-11-26 12:05:00,36.11 
2022-11-26 12:35:00,36.09 
2022-11-26 13:05:00,36.08 
2022-11-26 13:35:00,36.09 
2022-11-26 14:05:00,36.09 
2022-11-26 14:35:00,36.09 
2022-11-26 15:35:00,36.08 
2022-11-26 16:35:00,36.07 
2022-11-26 17:35:00,36.14 
2022-11-26 18:35:00,36.12 
2022-11-26 19:35:00,36.09 
2022-11-26 20:35:00,36.18 
2022-11-26 21:35:00,36.11 
2022-11-26 22:35:00,36.13 
2022-11-26 23:35:00,36.10 
2022-11-27 00:35:00,36.10 
2022-11-27 01:05:00,36.15 
2022-11-27 01:35:00,36.12 
2022-11-27 02:35:00,36.12 
2022-11-27 03:35:00,36.09 
2022-11-27 04:05:00,36.09 
2022-11-27 04:35:00,36.09 
2022-11-27 05:35:00,36.07 
2022-11-27 06:35:00,36.11 
2022-11-27 07:05:00,36.11 
2022-11-27 07:35:00,36.10 
2022-11-27 08:35:00,36.08 
2022-11-27 09:35:00,36.07 
2022-11-27 10:35:00,36.07 
2022-11-27 11:35:00,36.08 
2022-11-27 12:35:00,36.10 
2022-11-27 13:05:00,36.11 
2022-11-27 13:35:00,36.11 
2022-11-27 14:35:00,36.11 
2022-11-27 15:35:00,36.07 
2022-11-27 16:35:00,36.10 
2022-11-27 17:35:00,36.08 
2022-11-27 18:35:00,36.12 
2022-11-27 19:05:00,36.11 
2022-11-27 19:35:00,36.11 
2022-11-27 20:35:00,36.04 
2022-11-27 21:35:00,36.07 
2022-11-27 22:35:00,36.08 
2022-11-27 23:35:00,36.08 
2022-11-28 00:05:00,36.10 
2022-11-28 00:35:00,36.05 
2022-11-28 01:35:00,36.06 
2022-11-28 02:35:00,36.12 
2022-11-28 03:35:00,36.10 
2022-11-28 04:05:00,36.12 
2022-11-28 04:35:00,36.14 
2022-11-28 05:35:00,36.11 
2022-11-28 06:35:00,36.15 
2022-11-28 07:05:00,36.15 
2022-11-28 07:35:00,36.09 
2022-11-28 08:35:00,36.12 
2022-11-28 09:35:00,36.13 
2022-11-28 10:35:00,36.15 
2022-11-28 11:35:00,36.13 
2022-11-28 12:35:00,36.10 
2022-11-28 13:35:00,36.09 
2022-11-28 14:35:00,36.13 
2022-11-28 15:35:00,36.12 
2022-11-28 16:35:00,36.12 
2022-11-28 17:05:00,36.13 
2022-11-28 17:35:00,36.12 
2022-11-28 18:05:00,36.12 
2022-11-28 18:35:00,36.11 
2022-11-28 19:35:00,36.10 
2022-11-28 20:35:00,36.09 
2022-11-28 21:35:00,36.08 
2022-11-28 22:35:00,36.12 
2022-11-28 23:05:00,36.13 
2022-11-28 23:35:00,36.15 
2022-11-29 00:35:00,36.09 
2022-11-29 01:35:00,36.11 
2022-11-29 02:05:00,36.11 
2022-11-29 02:35:00,36.12 
2022-11-29 03:35:00,36.13 
2022-11-29 04:35:00,36.14 
2022-11-29 05:35:00,36.08 
2022-11-29 06:35:00,36.09 
2022-11-29 07:05:00,36.11 
2022-11-29 07:35:00,36.10 
2022-11-29 08:35:00,36.12 
2022-11-29 09:35:00,36.13 
2022-11-29 10:35:00,36.16 
2022-11-29 11:05:00,36.10 
2022-11-29 11:35:00,36.09 
2022-11-29 12:05:00,36.10 
2022-11-29 12:35:00,36.11 
2022-11-29 13:35:00,36.13 
2022-11-29 14:35:00,36.13 
2022-11-29 15:35:00,36.13 
2022-11-29 16:35:00,36.12 
2022-11-29 17:35:00,36.10 
2022-11-29 18:35:00,36.15 
2022-11-29 19:35:00,36.10 
2022-11-29 20:05:00,36.13 
2022-11-29 20:35:00,36.09 
2022-11-29 21:35:00,36.09 
2022-11-29 22:05:00,36.15 
2022-11-29 22:35:00,36.09 
2022-11-29 23:05:00,36.13 
